Theta_e
343 343 343 343 343 345 347 349 348 348 349 349 348 348 347 347 347 347 347 347 345 342 341 343 344 344 347 345 346 346 346 345 344 344 343 343 342 342 341 341 341 341 341 341 341 341 341 340 341 342 343 344 341 332 335 333 332 333 333 334 335 334
342 341 341 342 342 344 345 346 343 344 344 346 347 348 345 345 348 343 346 343 342 344 339 339 342 347 343 345 345 346 346 345 344 343 343 341 341 340 341 341 340 341 339 339 339 329 333 337 338 339 342 344 333 332 334 332 332 333 333 332 335 338
340 340 339 340 342 344 342 341 341 341 344 347 347 345 343 344 339 339 339 339 340 338 338 340 342 345 345 345 345 345 345 344 343 342 342 341 341 341 340 340 341 339 340 338 328 325 326 327 327 336 337 333 331 331 335 332 331 332 332 332 333 341
339 338 338 339 340 341 341 340 339 339 340 340 339 341 340 340 339 338 337 336 338 341 339 336 344 346 348 344 343 345 344 344 343 341 342 341 342 340 342 341 340 340 336 334 328 328 328 327 328 327 328 328 330 331 333 331 331 332 332 337 336 342
339 338 337 339 340 340 340 338 337 337 337 337 337 337 338 337 337 337 337 338 339 339 337 336 337 339 338 339 338 338 339 338 336 335 340 330 331 333 333 331 330 331 329 330 329 328 329 328 328 327 326 327 328 330 332 331 332 332 333 334 336 343
338 337 337 338 339 341 339 336 336 335 335 335 336 336 336 337 336 336 337 339 339 337 336 334 334 333 333 335 335 334 334 334 333 334 335 331 331 331 330 330 330 330 329 330 329 329 329 330 328 326 327 327 331 332 332 331 333 333 334 333 339 343
337 337 337 338 339 338 335 335 335 335 335 334 334 335 336 336 335 335 336 338 335 333 332 331 331 331 332 333 333 332 332 333 333 333 333 330 331 331 330 328 328 328 327 330 330 331 330 329 326 328 328 328 331 332 332 332 332 333 333 335 340 342
337 337 337 338 337 335 334 335 336 340 335 340 336 334 334 335 336 335 336 337 336 332 331 330 330 331 331 332 333 333 333 332 332 333 335 334 331 329 329 328 327 327 331 330 330 330 330 332 329 328 328 328 329 330 331 330 331 332 332 333 334 340
337 337 337 337 335 335 335 335 336 334 334 341 333 333 334 336 335 336 335 336 338 332 330 330 330 330 330 331 329 331 331 330 331 332 333 330 331 330 331 329 327 329 328 328 328 330 330 330 329 328 328 328 329 330 330 330 330 331 331 332 332 336
338 338 337 336 335 335 335 335 334 333 335 338 331 333 334 334 333 333 333 334 335 332 331 330 331 330 330 330 330 330 331 330 331 331 330 332 331 329 328 327 326 328 328 327 328 330 329 328 330 329 328 328 328 329 330 330 331 331 330 332 332 335
338 338 337 336 335 335 335 334 334 335 336 333 334 336 335 333 332 332 332 333 333 334 331 331 331 330 330 330 328 329 329 330 329 329 330 332 330 330 328 327 327 325 323 325 327 329 329 328 327 329 329 328 328 330 331 332 332 331 331 332 333 333
338 338 336 335 335 335 334 335 335 335 335 335 337 334 333 333 334 331 332 331 330 331 333 331 331 330 330 327 326 328 329 328 329 329 330 330 329 327 326 328 329 329 330 329 327 328 329 328 328 329 329 329 328 328 330 331 331 332 332 333 333 334
338 337 335 335 334 334 334 335 334 335 336 337 336 334 332 331 330 331 331 330 329 330 330 330 330 331 332 326 326 327 328 328 328 330 331 330 330 327 328 328 328 329 328 328 328 328 330 327 328 328 329 330 329 329 329 330 331 333 332 333 333 334
336 335 334 334 333 334 334 334 335 335 338 336 334 333 333 330 332 330 331 329 328 328 329 328 329 329 328 326 326 327 326 326 326 329 330 331 328 327 326 326 328 327 330 327 326 325 325 326 328 329 329 330 329 327 328 330 332 333 333 334 334 332
333 333 334 334 334 334 334 334 335 336 336 335 333 332 331 330 331 330 330 328 329 330 328 328 328 329 327 326 326 326 326 327 330 331 330 328 328 326 326 326 326 325 325 326 326 327 326 326 327 328 328 329 329 329 328 330 332 333 333 333 332 333
332 332 331 333 333 334 335 334 335 338 334 333 332 331 331 332 331 329 330 329 328 329 330 329 329 329 328 326 326 325 326 329 332 331 329 327 326 326 323 325 325 324 325 326 328 327 325 326 327 328 328 328 328 328 328 330 332 333 332 331 332 332
330 330 330 332 332 333 335 334 335 336 335 334 331 330 330 332 332 331 329 329 330 330 328 329 330 331 328 327 326 326 328 332 331 330 328 326 324 324 325 327 324 324 323 324 326 328 326 325 327 328 328 328 326 327 327 329 329 331 332 330 329 332
330 331 331 332 332 333 335 335 335 335 337 334 333 332 332 334 333 330 330 329 330 331 332 330 330 330 329 330 329 329 329 330 330 329 327 327 325 324 325 325 325 325 326 323 323 324 324 324 327 328 328 327 326 326 327 328 330 332 329 329 330 331
331 332 331 332 332 333 334 334 334 335 335 334 333 332 332 332 331 331 330 330 331 331 331 329 331 331 331 331 329 328 328 328 329 328 327 326 324 325 325 323 325 323 325 325 324 323 324 322 326 327 327 328 328 328 327 328 327 326 327 330 334 333
329 330 331 331 331 331 331 332 332 331 332 332 331 331 331 331 331 330 331 331 330 328 330 330 331 330 330 329 328 328 328 328 327 328 325 324 322 323 324 324 323 324 325 327 325 324 323 324 325 325 325 326 328 327 328 327 326 327 327 328 329 331
328 331 330 330 329 331 330 330 329 329 329 330 330 328 329 328 329 329 331 332 331 330 329 330 330 330 329 333 328 327 327 326 326 326 325 323 322 324 324 324 324 323 322 321 324 325 322 322 324 322 322 322 323 326 328 327 326 327 327 327 328 328
328 329 329 330 331 331 330 331 330 329 325 326 326 325 323 324 326 328 328 329 329 328 328 328 329 328 329 329 327 327 326 325 325 324 324 324 323 328 325 326 325 322 322 320 319 322 321 319 319 320 319 317 319 321 324 324 325 326 327 327 327 328
328 328 327 328 328 329 329 329 327 324 325 323 324 325 325 326 327 327 326 327 326 326 327 327 328 330 329 328 328 327 326 325 325 327 323 322 323 323 323 325 324 323 321 321 322 324 323 320 315 317 318 317 313 312 316 318 321 324 325 326 327 327
328 328 327 327 328 327 329 328 324 325 325 324 321 325 326 325 325 325 325 325 325 325 326 326 328 328 327 326 326 326 327 325 326 326 323 322 322 322 322 323 322 322 320 317 317 320 324 323 318 319 313 310 310 311 309 312 314 318 323 325 326 327
327 326 326 327 327 325 325 322 323 322 323 322 322 322 322 321 322 325 322 322 323 323 325 327 325 325 327 324 323 324 326 325 326 326 326 324 324 325 324 323 323 322 318 317 318 318 321 323 321 321 317 313 309 306 307 310 312 314 321 322 325 326
325 325 325 325 326 326 323 321 320 319 318 317 317 318 318 319 319 320 320 321 322 322 323 322 322 323 325 325 323 323 322 324 325 326 325 324 325 326 324 323 322 323 320 319 319 318 318 320 321 323 318 315 312 311 312 314 311 309 319 322 322 325
325 325 325 325 325 324 320 320 320 319 318 317 316 316 318 320 320 319 320 320 320 321 323 322 321 321 323 323 322 323 322 323 324 323 325 324 323 326 326 326 325 322 321 321 318 315 319 318 318 319 321 320 321 318 319 313 308 312 312 317 320 322
326 326 326 325 324 323 319 319 318 317 317 316 316 316 317 318 319 320 319 320 320 319 320 321 321 321 322 322 322 322 321 321 322 322 323 322 321 322 325 324 323 323 323 321 319 320 317 318 316 317 319 319 320 319 319 317 315 312 311 310 315 322
326 326 325 324 323 322 320 319 318 317 316 317 318 317 318 320 318 319 318 318 319 318 320 320 321 320 320 322 322 320 320 321 321 321 323 324 322 323 323 322 321 321 320 319 319 319 320 317 318 317 317 316 318 316 316 316 317 315 311 312 314 317
325 324 323 322 322 321 320 320 318 318 318 317 317 317 317 316 316 317 318 317 317 317 317 318 319 320 320 320 317 319 320 320 320 322 323 322 322 322 322 321 319 321 321 320 319 320 320 319 320 319 317 317 315 314 315 314 314 313 314 313 314 316
325 324 323 323 322 322 322 322 320 319 317 316 316 316 314 314 316 317 317 316 316 316 317 318 317 317 317 319 320 321 320 320 320 322 322 321 320 321 320 319 319 319 319 319 318 318 318 317 317 317 316 318 318 318 315 312 313 311 310 311 315 315
324 323 322 322 321 322 324 324 321 318 316 317 317 315 314 315 316 316 316 316 316 315 315 316 315 315 315 317 318 316 318 317 318 317 318 317 318 318 318 317 317 317 316 315 316 318 315 316 316 316 315 315 317 316 314 316 316 315 314 314 315 314
322 322 322 322 321 322 324 323 320 317 316 317 317 316 316 317 316 316 316 315 314 314 313 315 314 316 314 315 316 315 315 314 315 316 316 316 315 316 315 315 315 314 314 313 312 312 312 312 313 314 313 314 317 317 317 317 318 316 315 315 316 313
322 322 321 320 320 321 322 322 319 317 317 318 316 316 317 317 316 317 317 315 314 313 313 314 313 314 314 315 315 315 315 314 314 314 315 313 313 313 313 312 311 311 311 310 311 311 311 310 309 308 309 310 311 314 315 319 319 318 316 315 312 314
320 320 320 320 320 321 321 320 318 318 318 317 317 317 317 317 317 318 317 316 315 314 315 313 313 313 314 315 314 313 313 313 313 313 313 313 313 311 312 312 312 311 312 311 312 312 310 310 311 309 309 309 310 310 312 316 318 318 318 316 314 313
321 321 320 320 320 322 321 320 318 318 317 318 319 317 317 318 318 319 318 317 315 315 315 314 313 313 314 314 313 313 313 313 312 312 312 312 311 311 310 310 309 310 311 314 311 310 309 309 309 309 309 309 310 309 310 311 315 317 318 316 314 311
319 319 320 319 320 322 321 319 318 318 317 318 318 317 317 317 317 319 318 316 315 315 315 314 315 313 311 311 312 312 313 312 311 310 309 310 310 309 309 309 310 309 309 309 311 309 308 309 307 308 308 308 308 308 307 308 309 312 314 314 315 311
Wind_Speed
7 7 7 6 6 7 10 13 11 12 12 12 12 12 12 13 10 10 9 9 8 5 4 5 6 5 10 6 8 10 11 11 10 9 8 7 6 5 5 4 4 3 1 1 2 4 7 8 8 8 8 6 8 2 4 5 5 5 4 4 5 6
7 8 7 6 5 5 7 9 5 5 5 7 10 11 9 6 8 5 8 6 5 4 4 4 4 7 4 5 7 10 10 10 10 9 8 7 6 5 5 4 3 2 2 3 3 2 4 6 8 9 8 5 6 2 6 6 5 5 4 3 4 8
8 8 8 6 6 6 7 4 4 4 4 7 6 6 5 6 4 5 5 5 5 4 4 3 4 6 5 8 7 10 9 9 9 8 7 7 6 5 4 3 3 3 4 3 3 3 3 4 6 9 7 6 4 1 4 6 5 5 4 2 3 11
8 8 7 6 6 6 5 4 4 4 4 4 4 4 5 5 4 5 5 5 5 5 4 3 5 9 8 4 5 9 10 9 9 7 6 4 5 3 5 6 5 5 4 3 3 3 3 5 6 5 5 5 4 1 2 6 6 4 3 3 4 12
7 7 8 7 7 6 5 4 4 4 4 4 4 4 4 4 5 5 5 5 5 5 5 4 5 4 4 4 3 3 4 4 3 3 4 2 2 3 4 4 4 3 3 4 5 5 5 5 5 5 5 5 3 2 3 5 6 5 3 3 4 11
7 7 8 7 7 7 7 5 4 4 5 3 3 4 4 4 5 5 5 5 5 5 4 4 5 5 4 4 4 4 4 4 3 3 3 2 3 4 4 3 3 4 3 3 4 4 4 4 4 4 5 5 6 6 6 4 4 5 3 2 4 9
7 7 7 6 6 5 5 5 5 4 5 3 3 4 4 4 4 4 4 5 6 5 4 4 5 4 5 4 3 3 3 3 3 3 2 4 3 3 3 4 3 3 3 4 4 4 4 3 3 3 4 5 6 7 7 6 5 5 4 3 3 8
8 8 6 6 6 5 5 5 5 6 4 4 4 4 4 4 4 4 4 4 5 4 5 5 4 4 3 4 4 3 4 4 4 3 3 4 4 3 3 2 2 3 3 4 4 3 4 3 3 3 4 4 5 6 6 6 6 6 4 4 3 3
8 8 7 6 6 5 5 4 4 4 4 5 3 4 4 4 5 4 4 4 5 4 4 5 5 4 3 3 3 4 4 4 3 2 3 4 3 3 2 1 2 3 4 4 4 4 2 2 3 5 5 5 5 6 6 6 6 5 3 3 6 7
8 8 7 6 5 6 5 5 4 4 4 4 3 3 3 4 4 5 4 4 3 4 4 4 4 4 5 3 2 3 4 3 4 3 3 3 2 3 3 1 2 2 4 3 3 3 2 2 3 4 4 5 5 6 6 6 5 5 4 3 3 5
7 7 7 6 6 6 5 5 4 4 4 4 4 4 4 4 4 4 4 4 3 3 4 4 4 4 4 4 3 4 3 3 4 3 3 3 2 3 2 2 1 2 2 2 3 1 2 3 3 5 3 4 4 5 6 5 4 5 4 4 3 1
7 7 7 7 6 6 6 5 5 5 4 4 5 4 4 4 4 4 4 4 4 3 4 4 4 4 4 4 3 4 3 4 4 3 4 4 4 2 2 1 1 2 2 2 3 3 3 4 4 4 3 4 2 4 5 5 6 6 5 5 4 4
6 7 7 7 6 5 5 5 5 5 4 5 5 4 4 4 4 4 4 3 3 3 3 4 4 5 4 3 3 3 3 4 4 4 4 3 3 2 2 1 1 2 2 2 3 4 3 3 4 4 3 3 3 4 5 5 6 6 6 5 4 5
5 7 6 5 5 5 5 5 5 5 5 5 5 5 4 3 4 4 4 3 3 3 3 3 3 3 5 4 3 4 3 3 4 3 3 4 3 2 2 2 1 1 1 2 3 3 4 4 4 3 4 4 3 1 3 4 4 5 5 5 4 1
4 4 4 5 6 5 5 5 5 5 5 5 4 5 4 4 4 4 4 4 3 3 2 2 2 4 4 4 4 4 3 4 3 3 4 3 4 1 2 2 2 2 2 2 2 2 2 4 4 4 4 4 3 2 1 2 3 4 4 4 5 5
7 9 9 6 5 6 6 5 5 5 4 3 4 5 5 4 4 4 3 3 3 2 3 3 3 2 4 3 3 2 2 3 4 4 4 4 3 3 2 3 2 3 4 3 3 3 2 4 4 5 3 4 3 2 3 4 4 4 3 3 3 2
10 9 6 7 5 5 5 5 5 5 5 4 4 3 4 4 4 4 3 4 3 2 2 3 4 4 4 4 3 2 2 5 4 5 4 3 3 2 3 3 0 1 3 4 3 4 3 3 4 4 4 3 2 2 3 4 3 4 4 4 2 3
8 6 5 7 8 7 7 5 4 5 4 4 3 3 3 3 3 3 3 3 2 3 3 4 4 4 5 4 4 4 4 5 5 5 4 4 3 2 2 3 2 1 3 4 4 4 3 2 3 5 5 4 3 3 4 4 4 3 3 3 2 3
9 5 5 6 6 6 5 4 4 4 4 4 3 3 3 4 3 3 3 3 3 4 2 2 3 4 5 5 5 5 5 4 5 5 4 3 2 2 2 2 3 2 3 4 4 3 3 2 3 4 5 3 3 4 4 4 5 5 4 3 4 3
9 9 6 3 2 3 4 5 5 2 3 4 3 3 3 4 4 4 3 3 2 2 2 2 3 3 5 5 5 4 5 4 5 5 4 3 2 2 3 3 3 4 5 4 4 3 3 4 5 5 5 4 6 6 6 5 5 4 4 4 4 3
8 9 8 7 6 6 6 5 3 4 4 4 5 3 3 3 5 4 4 4 3 3 3 3 3 3 4 5 5 4 4 3 4 4 4 3 3 3 2 3 3 3 4 3 3 2 1 3 6 5 5 6 5 5 5 5 5 5 5 4 3 4
6 6 7 9 8 7 5 5 6 6 3 4 5 5 3 3 3 3 4 4 4 4 4 3 3 3 3 4 4 4 4 4 4 3 3 2 3 3 3 3 3 3 2 3 2 2 1 2 3 3 5 2 3 3 4 5 5 5 4 4 4 5
7 7 7 6 6 7 4 5 5 3 5 3 2 4 5 4 3 4 4 4 3 3 3 2 3 3 4 3 4 4 4 4 4 4 3 2 3 3 3 4 4 5 3 2 3 2 2 0 3 0 2 4 1 2 3 3 3 5 5 5 5 5
7 7 7 7 6 5 4 4 3 6 5 5 5 4 5 4 4 4 3 1 2 3 3 3 2 2 2 3 4 4 4 4 5 3 4 3 2 2 3 2 3 3 5 3 2 1 1 2 2 6 1 1 2 3 4 1 2 2 3 5 5 6
8 8 7 6 5 3 5 6 6 5 6 7 5 6 6 4 4 3 3 2 2 3 3 3 2 2 2 3 2 3 4 3 4 4 4 4 4 4 3 3 3 4 3 5 3 2 0 3 4 1 4 3 2 1 2 2 2 3 3 4 5 4
7 7 7 5 4 5 7 9 9 9 8 7 6 6 7 7 4 5 4 1 3 4 4 4 3 2 2 3 3 2 2 3 3 5 3 3 3 3 3 3 3 3 2 1 4 4 2 2 3 3 2 2 4 4 6 3 2 2 2 3 3 3
7 6 5 5 5 5 7 8 9 9 8 9 8 4 5 5 6 3 4 5 4 4 5 5 3 4 4 3 3 3 3 3 2 3 2 4 4 4 3 3 3 3 3 4 3 3 5 2 1 1 1 1 0 2 6 6 2 4 3 3 4 4
6 6 6 5 5 5 8 8 8 8 8 8 8 6 6 5 3 4 6 5 4 3 2 3 4 4 4 3 3 3 2 3 3 2 2 4 4 4 4 2 3 3 3 3 4 6 4 4 5 2 1 2 3 3 1 3 4 5 5 5 3 3
8 7 6 6 6 4 7 9 9 8 7 5 6 6 5 5 5 5 6 4 4 3 4 3 3 4 3 3 3 4 4 4 4 3 3 5 3 4 4 4 3 4 3 2 3 4 5 4 3 3 3 2 4 3 3 3 3 4 4 5 4 3
10 7 6 5 5 4 6 8 8 7 8 6 7 6 6 6 5 4 6 5 4 5 5 4 3 3 4 3 4 4 5 5 4 3 3 4 4 4 4 3 3 4 4 3 1 4 5 5 4 4 3 5 4 2 3 2 2 5 6 3 6 7
10 7 6 6 5 6 6 6 7 8 9 9 9 9 8 5 5 5 7 5 5 5 5 5 4 3 4 4 5 4 5 4 3 3 5 5 4 4 4 4 3 4 4 4 3 3 3 2 2 2 3 5 6 7 6 4 5 3 4 4 6 5
8 7 6 6 5 6 6 6 6 8 9 9 10 9 9 8 7 7 6 6 4 5 4 5 4 5 4 4 5 5 4 4 4 4 5 4 4 5 4 4 5 5 4 3 3 4 3 3 3 3 2 3 4 3 1 4 5 5 7 7 8 7
10 8 8 6 6 6 6 6 8 8 8 8 8 9 8 8 6 7 6 6 5 6 4 5 4 5 4 4 5 6 5 5 5 4 5 5 4 5 5 5 4 4 4 4 3 3 4 2 2 3 5 2 4 3 2 2 5 6 5 5 7 8
9 6 6 5 4 5 4 4 6 8 8 7 8 8 7 8 6 7 6 6 5 6 5 4 3 4 3 4 4 4 5 5 5 4 5 5 5 4 5 5 4 5 4 2 4 5 5 5 5 3 3 5 3 5 4 4 5 6 7 7 6 7
5 5 5 5 4 4 3 2 4 5 6 5 7 7 7 7 7 7 6 6 5 5 6 3 5 3 2 4 4 4 5 6 5 6 5 5 5 5 4 5 4 4 4 4 6 6 5 5 6 5 5 5 5 5 5 5 6 5 5 5 6 7
7 6 5 4 4 4 3 2 4 5 6 6 6 6 6 6 6 7 6 7 5 5 6 5 3 4 2 4 4 4 4 5 5 5 5 5 5 4 4 5 4 4 4 3 7 6 4 6 6 5 5 4 6 5 4 5 5 6 5 5 5 5
4 3 3 3 3 4 3 3 4 5 5 6 7 7 7 6 6 6 6 6 6 5 5 5 4 4 4 4 4 4 4 5 5 5 5 4 4 4 4 4 4 4 4 4 6 5 4 6 4 4 5 5 6 5 3 3 4 5 6 4 5 6
Wind_Direction
115 109 111 115 120 121 135 126 125 131 132 126 122 123 126 126 122 119 117 114 103 99 105 107 112 116 119 119 124 125 124 121 119 118 115 112 102 96 103 98 98 97 65 0 346 334 324 322 324 320 316 341 66 41 94 100 108 123 133 141 135 135
120 119 121 116 113 120 125 122 126 127 121 123 125 126 125 121 118 104 111 97 98 96 98 108 118 124 121 128 129 132 128 123 119 118 120 116 113 106 99 100 102 91 51 11 351 355 332 330 328 322 319 354 74 32 105 119 123 129 136 141 140 140
127 124 116 111 111 112 111 119 123 123 122 125 125 117 113 107 111 109 95 93 90 88 95 112 122 136 134 136 136 134 131 124 119 121 117 117 115 111 107 90 60 53 36 12 19 10 358 344 342 344 2 34 64 332 124 125 121 123 130 151 140 139
128 123 113 111 105 110 122 131 124 106 106 102 103 107 116 123 105 94 97 95 91 86 78 80 141 136 129 117 132 133 127 122 122 121 116 98 105 112 74 42 30 58 35 33 44 29 17 29 10 2 33 52 106 205 140 133 128 120 132 155 149 142
125 122 121 124 127 133 138 124 103 112 118 116 108 112 111 93 90 89 89 89 83 83 85 85 80 80 73 91 83 72 85 84 90 95 95 70 54 40 62 53 46 41 31 36 36 17 19 22 12 7 8 30 99 174 126 130 126 126 143 141 152 139
127 131 135 140 142 142 136 120 122 136 119 105 110 112 98 94 99 98 98 94 88 88 90 90 80 88 78 76 76 76 90 102 108 122 106 74 55 66 78 78 60 47 33 44 46 28 18 24 16 14 17 37 56 66 65 61 94 97 78 100 143 135
129 131 135 140 139 129 121 126 137 133 119 108 105 110 102 100 100 102 102 108 109 110 103 101 102 103 104 106 117 113 110 111 125 125 115 97 70 70 86 92 93 74 63 51 48 30 21 18 21 29 39 47 67 81 87 91 84 79 60 33 95 125
137 137 141 144 138 129 121 132 148 134 106 138 124 120 115 112 105 102 107 106 116 122 129 119 104 100 112 108 130 131 124 115 112 112 105 97 95 65 48 67 97 94 72 49 51 38 27 8 8 41 53 57 72 86 97 103 100 95 86 94 94 80
142 139 140 143 139 128 129 133 129 120 138 146 119 122 115 114 113 114 115 127 135 133 138 131 133 131 108 115 120 108 102 113 107 109 92 68 90 96 75 55 63 79 79 67 62 46 38 18 31 47 73 79 81 91 103 108 110 110 119 181 169 164
147 141 142 142 139 141 143 135 131 136 163 144 146 145 122 121 127 131 135 136 140 149 142 137 135 132 120 115 96 81 82 95 103 108 97 98 110 119 136 102 66 80 73 73 70 48 67 47 56 61 67 89 95 109 115 125 134 139 147 209 204 169
139 137 141 139 147 145 137 140 144 152 151 149 156 153 133 132 132 135 145 142 143 144 128 122 120 122 112 122 118 107 102 110 111 123 117 124 144 133 126 126 150 101 92 89 91 101 90 87 74 81 75 86 112 115 122 126 125 129 147 185 181 75
138 140 140 137 141 144 145 150 146 148 153 156 152 154 150 143 138 143 147 149 158 141 120 115 124 123 129 129 136 126 130 121 135 153 140 146 147 137 131 136 92 81 89 91 109 86 93 104 90 89 98 96 102 110 121 126 131 151 166 174 170 165
137 135 131 133 148 143 138 145 149 153 157 158 156 157 159 150 143 144 150 162 162 147 127 124 127 141 139 134 139 134 131 142 158 159 158 144 117 101 86 84 47 63 53 58 89 79 78 73 92 86 91 82 92 116 131 138 151 163 174 156 168 192
121 122 126 139 138 136 144 151 156 159 159 158 161 156 160 151 149 153 150 165 161 147 125 114 119 128 130 140 160 152 142 154 158 146 126 117 119 126 112 105 133 69 139 100 96 101 99 91 82 71 61 72 70 98 144 152 162 159 154 155 165 101
81 89 130 140 149 158 165 162 165 166 161 160 162 156 154 154 141 152 150 152 157 152 115 107 120 135 141 156 161 145 146 156 141 127 119 125 126 104 115 141 142 121 77 73 72 66 77 89 90 80 70 74 89 94 115 123 128 135 148 143 147 169
148 183 163 153 170 169 175 170 167 161 150 161 161 158 156 160 153 158 154 149 161 162 141 146 162 155 151 165 152 138 157 136 133 122 123 135 133 136 112 123 174 137 104 101 91 70 66 94 96 98 84 75 78 106 124 126 126 117 118 112 120 120
164 199 152 161 173 177 180 178 171 162 165 161 159 158 164 146 142 149 158 166 179 180 144 161 165 168 148 150 141 148 148 140 138 133 137 137 127 132 128 120 54 49 105 100 84 87 66 76 102 100 90 83 81 104 97 87 88 97 107 108 113 123
164 191 187 174 176 178 182 168 161 169 166 160 172 175 159 145 158 153 164 191 178 190 177 169 158 156 144 152 150 145 140 137 135 135 137 141 159 141 143 131 115 20 82 95 85 95 91 79 98 99 91 83 58 59 61 67 73 102 105 122 76 100
149 179 201 199 165 162 162 154 147 163 161 168 176 181 155 158 165 155 192 195 181 182 174 137 135 136 123 132 134 129 127 133 131 129 124 112 134 140 133 136 129 79 65 98 120 113 120 115 74 77 87 87 80 59 53 47 49 53 41 38 100 90
151 169 182 192 116 128 144 163 155 153 170 174 172 173 168 167 151 169 203 191 185 154 153 140 146 139 132 137 126 126 121 118 115 117 112 103 109 149 146 129 134 117 97 76 65 99 110 111 83 74 74 57 51 52 48 39 42 38 28 40 42 77
160 159 161 165 169 166 165 170 145 184 193 166 165 155 151 154 166 170 166 170 166 166 163 153 145 139 130 118 115 118 108 100 111 119 133 156 172 163 150 143 137 109 111 86 70 66 45 100 104 68 42 45 42 41 53 49 48 45 36 21 28 57
162 161 173 170 172 174 179 180 165 182 163 134 138 137 139 153 166 152 157 158 162 161 161 152 139 127 119 118 118 120 123 130 125 123 135 154 165 149 116 122 128 77 71 117 123 149 205 94 35 118 120 53 10 33 71 58 55 44 40 28 40 59
169 168 178 179 165 173 177 176 170 172 143 129 112 143 140 146 145 142 158 163 162 155 135 112 133 135 130 132 137 132 142 141 141 148 123 84 121 123 136 141 142 133 101 67 111 140 164 163 132 69 85 101 63 52 359 34 33 41 26 38 43 48
181 176 179 188 178 183 172 160 135 139 131 128 143 119 108 116 110 110 140 117 114 134 119 125 137 131 124 122 134 147 146 151 161 152 135 127 107 132 134 118 119 122 132 115 102 108 157 160 130 131 96 133 163 106 93 10 49 4 27 58 45 57
179 180 184 179 185 184 118 102 107 97 100 82 72 95 100 87 109 122 107 106 125 102 125 137 140 124 127 147 133 149 152 151 142 151 144 137 152 174 174 153 151 140 146 143 141 137 25 124 123 170 145 99 48 57 196 188 143 25 16 47 37 50
174 180 174 183 188 160 152 138 137 136 133 128 127 127 134 146 142 139 140 107 77 118 123 118 114 123 153 139 170 151 138 136 141 151 149 158 138 134 145 141 181 155 151 155 139 119 115 19 106 116 168 188 174 166 155 183 110 116 22 59 61 56
174 174 172 187 182 169 147 147 146 145 143 146 145 169 151 153 149 149 116 109 120 111 120 123 133 123 119 169 153 137 155 149 112 96 122 114 129 155 152 164 161 144 155 130 111 111 142 176 58 64 63 279 240 128 133 128 153 128 100 356 26 36
174 173 181 185 176 182 146 143 138 140 145 145 149 156 152 152 137 131 111 118 100 67 69 97 106 92 104 125 117 146 129 100 105 137 116 127 132 135 121 101 124 130 121 134 131 136 156 167 143 193 30 45 48 66 120 100 113 149 132 127 97 69
177 178 184 181 169 188 154 148 145 143 140 148 137 137 136 134 133 121 105 81 85 81 74 60 67 73 58 89 101 129 134 124 113 108 114 107 101 106 126 128 116 112 124 125 146 153 139 183 154 163 115 56 63 52 53 57 97 80 124 128 95 113
179 178 176 168 160 178 160 144 141 144 140 140 128 127 131 135 125 118 106 103 99 91 92 73 60 75 84 73 89 98 118 124 124 130 101 96 94 85 85 92 107 120 124 112 116 152 165 177 174 163 149 150 124 93 61 39 69 93 68 51 135 142
175 167 167 166 163 177 160 145 144 145 140 140 139 136 130 125 124 112 117 120 110 108 98 103 90 62 67 67 69 78 98 105 105 101 94 83 83 90 77 78 73 75 79 101 102 92 85 96 123 120 137 149 158 163 166 168 178 139 132 128 122 121
163 163 167 161 172 174 155 146 142 145 143 146 145 144 141 146 144 133 132 131 125 100 91 91 90 87 69 72 77 74 84 93 93 92 88 92 88 87 86 79 68 73 74 76 84 91 96 95 89 83 81 142 156 144 125 145 165 134 123 146 141 139
169 163 168 165 174 165 147 145 148 148 146 147 145 143 143 141 143 135 137 129 122 112 105 86 84 94 92 94 96 86 91 100 92 92 103 95 96 91 89 84 87 81 75 73 81 99 89 98 133 122 131 95 116 129 140 114 107 105 99 117 132 131
170 155 153 159 160 155 141 147 152 150 151 150 148 145 144 141 140 135 137 135 133 135 124 131 125 125 141 105 86 97 96 95 106 112 105 105 101 98 95 94 88 81 80 90 88 89 95 89 76 77 97 85 71 89 89 101 117 117 129 126 134 137
155 156 150 152 148 143 123 138 144 144 146 148 146 141 138 137 136 135 137 131 131 127 120 138 132 152 131 105 107 94 96 103 109 106 105 98 92 88 90 86 83 92 80 87 86 89 87 94 86 83 74 90 88 73 95 110 123 127 130 141 142 151
169 157 148 146 149 141 117 128 143 147 155 150 143 131 123 125 129 134 136 136 145 139 137 134 131 122 129 118 116 101 90 103 110 110 111 112 109 105 104 98 82 79 79 92 98 92 101 88 83 83 94 96 83 79 97 119 129 140 147 148 131 121
138 121 116 125 130 123 104 133 161 153 150 153 143 138 139 134 130 133 135 139 139 144 135 134 138 130 124 110 114 112 104 110 112 117 113 114 112 116 113 110 115 107 102 97 96 108 103 92 101 95 79 80 101 95 60 89 113 145 153 156 156 153